Pasco, WA

11:41 AM PDT on April 24, 2017 (GMT -0700)
Tri-Cities

Weather History for KPSC - April, 2013

Change the Weather History Date:

Friday, April 26, 2013

  Actual Average Record
Temperature  
Mean Temperature 63 °F 55 °F  
Max Temperature 85 °F 70 °F 87 °F (2001)
Min Temperature 40 °F 40 °F 26 °F (2008)
Degree Days  
Heating Degree Days 2 10  
Month to date heating degree days 336 324  
Since 1 July heating degree days 4519 4785  
Cooling Degree Days 0 0  
Month to date cooling degree days 0 0  
Year to date cooling degree days 0 0  
Growing Degree Days 12 (Base 50)    
Moisture  
Dew Point 37 °F    
Average Humidity 50    
Maximum Humidity 86    
Minimum Humidity 14    
Precipitation  
Precipitation 0.00 in 0.02 in 0.41 in (2012)
Month to date precipitation 0.55 0.57  
Year to date precipitation 1.26 3.44  
Snow  
Snow 0.00 in - - ()
Snow Depth 0.00 in    
Sea Level Pressure  
Sea Level Pressure 30.11 in    
Wind  
Wind Speed 4 mph (SSW)    
Max Wind Speed 14 mph    
Max Gust Speed 24 mph    
Visibility 10 miles    
Events      
T = Trace of Precipitation, MM = Missing Value Source: NWS Daily Summary

Daily Weather History Graph

Daily Weather History Graph

Search for Another Location

Airport or City:

Trip Planner

Search our weather history database for the weather conditions in past years. The results will help you decide how hot, cold, wet, or windy it might be!

Date:

Astronomy

Apr. 26, 2013 Rise Set
Actual Time 5:50 AM PDT 7:59 PM PDT
Civil Twilight 5:17 AM PDT 8:31 PM PDT
Nautical Twilight 4:37 AM PDT 9:12 PM PDT
Astronomical Twilight 3:52 AM PDT 9:57 PM PDT
Moon 9:32 PM PDT (4/26) 6:18 AM PDT (4/26)
Length of Visible Light 15h 14m
Length of Day
14h 08m
Full, 99% of the Moon is Illuminated
Apr 26
Full
May 2
Last Quarter
May 9
New
May 17
First Quarter
May 24
Full

Hourly Weather History & Observations

Time (PDT) Temp. Dew Point Humidity Pressure Visibility Wind Dir Wind Speed Gust Speed Precip Events Conditions
12:53 AM 54.0 °F 39.9 °F 59% 30.05 in 10.0 mi NE 3.5 mph - N/A   Clear
1:53 AM 52.0 °F 39.0 °F 61% 30.07 in 10.0 mi Calm Calm - N/A   Clear
2:53 AM 48.0 °F 39.9 °F 74% 30.08 in 10.0 mi Calm Calm - N/A   Clear
3:53 AM 46.9 °F 39.0 °F 74% 30.10 in 10.0 mi Calm Calm - N/A   Clear
4:53 AM 45.0 °F 39.9 °F 82% 30.12 in 10.0 mi Calm Calm - N/A   Clear
5:53 AM 41.0 °F 37.9 °F 89% 30.13 in 10.0 mi Calm Calm - N/A   Clear
6:53 AM 46.0 °F 41.0 °F 83% 30.14 in 10.0 mi Calm Calm - N/A   Clear
7:53 AM 59.0 °F 43.0 °F 55% 30.14 in 10.0 mi South 5.8 mph - N/A   Clear
8:53 AM 66.9 °F 43.0 °F 42% 30.15 in 10.0 mi South 6.9 mph - N/A   Clear
9:53 AM 70.0 °F 43.0 °F 38% 30.15 in 10.0 mi South 8.1 mph - N/A   Clear
10:53 AM 73.0 °F 41.0 °F 31% 30.16 in 10.0 mi South 6.9 mph - N/A   Clear
11:53 AM 75.0 °F 41.0 °F 29% 30.15 in 10.0 mi SSW 9.2 mph - N/A   Clear
12:53 PM 75.9 °F 39.9 °F 27% 30.13 in 10.0 mi SSW 8.1 mph - N/A   Clear
1:53 PM 80.1 °F 39.9 °F 24% 30.12 in 10.0 mi SW 8.1 mph - N/A   Clear
2:53 PM 82.0 °F 32.0 °F 16% 30.11 in 10.0 mi West 4.6 mph - N/A   Clear
3:53 PM 84.0 °F 35.1 °F 17% 30.09 in 10.0 mi WSW 5.8 mph - N/A   Clear
4:53 PM 84.0 °F 30.0 °F 14% 30.08 in 10.0 mi Variable 6.9 mph - N/A   Clear
5:53 PM 82.0 °F 30.9 °F 16% 30.07 in 10.0 mi SW 6.9 mph - N/A   Clear
6:53 PM 80.1 °F 27.0 °F 14% 30.06 in 10.0 mi SSW 9.2 mph - N/A   Clear
7:53 PM 77.0 °F 28.9 °F 17% 30.06 in 10.0 mi South 4.6 mph - N/A   Clear
8:53 PM 66.0 °F 37.0 °F 34% 30.08 in 10.0 mi NW 4.6 mph - N/A   Clear
9:53 PM 57.9 °F 39.0 °F 49% 30.11 in 10.0 mi WNW 3.5 mph - N/A   Clear
10:53 PM 63.0 °F 33.1 °F 33% 30.11 in 10.0 mi Calm Calm - N/A   Clear
11:53 PM 60.1 °F 35.1 °F 39% 30.12 in 10.0 mi SSE 5.8 mph - N/A   Clear